This is the latest recevied weather packets stored in our database for station/object NQ9F. If no packets are shown the sender has not sent any weather packets the latest 1 day(s).
| Time | Temp. | Humidity | Pressure | Rain* | Wind** | Luminosity | Snow |
|---|---|---|---|---|---|---|---|
| 1778029040 | 18.89° C | 76% | 1006.5 hPa | 0 mm | 4.02 m/s, 5° | 15 W/m² | - |
| 1778028736 | 19.44° C | 75% | 1006.4 hPa | 0 mm | 4.02 m/s, 357° | 27 W/m² | - |
| 1778028432 | 19.44° C | 75% | 1006.2 hPa | 0 mm | 5.36 m/s, 332° | 38 W/m² | - |
| 1778028130 | 19.44° C | 75% | 1006.2 hPa | 0 mm | 4.92 m/s, 0° | 45 W/m² | - |
| 1778027826 | 19.44° C | 75% | 1006.1 hPa | 0 mm | 6.26 m/s, 350° | 52 W/m² | - |
| 1778027522 | 20° C | 74% | 1006.3 hPa | 0 mm | 6.71 m/s, 359° | 37 W/m² | - |
| 1778027218 | 20° C | 74% | 1006.3 hPa | 0 mm | 6.71 m/s, 353° | 37 W/m² | - |
| 1778026914 | 20.56° C | 73% | 1006.4 hPa | 0 mm | 4.92 m/s, 359° | 31 W/m² | - |
| 1778026610 | 20.56° C | 72% | 1006.3 hPa | 0 mm | 7.15 m/s, 358° | 40 W/m² | - |
| 1778026308 | 20.56° C | 73% | 1006 hPa | 0 mm | 4.92 m/s, 350° | 28 W/m² | - |
| 1778026005 | 21.11° C | 71% | 1006.1 hPa | 0 mm | 6.26 m/s, 359° | 26 W/m² | - |
| 1778025702 | 21.11° C | 71% | 1006 hPa | 0 mm | 3.58 m/s, 357° | 35 W/m² | - |
| 1778025400 | 21.11° C | 70% | 1006 hPa | 0 mm | 2.68 m/s, 349° | 26 W/m² | - |
| 1778025097 | 21.67° C | 71% | 1006.4 hPa | 0 mm | 6.71 m/s, 355° | 25 W/m² | - |
| 1778024794 | 21.67° C | 70% | 1006.2 hPa | 0 mm | 6.26 m/s, 358° | 33 W/m² | - |
| 1778024491 | 21.67° C | 71% | 1006 hPa | 0 mm | 3.58 m/s, 0° | 47 W/m² | - |
| 1778024188 | 21.67° C | 70% | 1006.1 hPa | 0 mm | 7.15 m/s, 358° | 53 W/m² | - |
| 1778023885 | 22.22° C | 70% | 1005.9 hPa | 0 mm | 5.36 m/s, 355° | 54 W/m² | - |
| 1778023583 | 22.22° C | 69% | 1005.8 hPa | 0 mm | 5.36 m/s, 4° | 65 W/m² | - |
| 1778023280 | 22.78° C | 68% | 1005.7 hPa | 0 mm | 6.26 m/s, 1° | 93 W/m² | - |
| 1778022977 | 22.78° C | 68% | 1005.8 hPa | 0 mm | 4.02 m/s, 343° | 124 W/m² | - |
| 1778022676 | 22.78° C | 69% | 1005.8 hPa | 0 mm | 2.68 m/s, 6° | 123 W/m² | - |
| 1778022373 | 22.78° C | 67% | 1005.8 hPa | 0 mm | 3.58 m/s, 351° | 98 W/m² | - |
| 1778022069 | 22.78° C | 67% | 1005.8 hPa | 0 mm | 6.71 m/s, 346° | 106 W/m² | - |
| 1778021766 | 23.33° C | 67% | 1005.7 hPa | 0 mm | 3.13 m/s, 339° | 113 W/m² | - |
* Rain latest hour (hover to see other rain measurements)
** Current wind speed in m/s (hover to see current wind gust speed)